Overview Statistics Trail Chart Weather Telemetry Raw packets
 

This is the latest recevied weather packets stored in our database for station/object EA7URS-13. If no packets are shown the sender has not sent any weather packets the latest 10 day(s).

<< 47 48 49 50 51 52 53 >>
Time Temp. Humidity Pressure Rain* Wind** Luminosity Snow
1788339247 27.22° C 46% 1011.8 hPa 0 mm - 362 W/m² -
1788338946 26.67° C 47% 1011.8 hPa 0 mm - 335 W/m² -
1788338645 26.67° C 47% 1011.8 hPa 0 mm - 335 W/m² -
1788338343 26.11° C 48% 1011.9 hPa 0 mm - 306 W/m² -
1788338042 26.11° C 48% 1011.9 hPa 0 mm - 306 W/m² -
1788337741 25.56° C 50% 1011.8 hPa 0 mm - 278 W/m² -
1788337440 25.56° C 50% 1011.8 hPa 0 mm - 278 W/m² -
1788337139 25° C 52% 1012.1 hPa 0 mm - 250 W/m² -
1788336838 25° C 52% 1012.1 hPa 0 mm - 250 W/m² -
1788336537 24.44° C 53% 1011.6 hPa 0 mm - 222 W/m² -
1788336236 24.44° C 53% 1011.6 hPa 0 mm - 222 W/m² -
1788335935 24.44° C 54% 1011.9 hPa 0 mm - 195 W/m² -
1788335634 24.44° C 54% 1011.9 hPa 0 mm - 195 W/m² -
1788335333 23.33° C 56% 1011.7 hPa 0 mm - 168 W/m² -
1788335032 23.33° C 56% 1011.7 hPa 0 mm - 168 W/m² -
1788334731 23.33° C 57% 1011.7 hPa 0 mm - 144 W/m² -
1788334430 23.33° C 57% 1011.7 hPa 0 mm - 144 W/m² -
1788334129 22.78° C 58% 1011.6 hPa 0 mm - 120 W/m² -
1788333828 22.78° C 58% 1011.6 hPa 0 mm - 120 W/m² -
1788333526 22.78° C 60% 1011.5 hPa 0 mm - 99 W/m² -
1788333226 22.78° C 60% 1011.5 hPa 0 mm - 99 W/m² -
1788332924 22.22° C 61% 1011.6 hPa 0 mm - 78 W/m² -
1788332623 22.22° C 61% 1011.6 hPa 0 mm - 78 W/m² -
1788332322 21.67° C 63% 1011.6 hPa 0 mm - 59 W/m² -
1788332021 21.67° C 63% 1011.6 hPa 0 mm - 59 W/m² -

* Rain latest hour (hover to see other rain measurements)
** Current wind speed in m/s (hover to see current wind gust speed)